Location: Boiro
(42.6475°N, 8.8834°W)
Time: 19:51:54
(UTC+01:00)

Explorer 11/Cluster Stage 4 - All Passes

Search period start: 30 November 2021 00:00
Search period end: 10 December 2021 00:00
Orbit: 467 x 1255 km, 28.8° (Epoch: 29 November)

Date Brightness Start Highest point End Pass type
(mag) Time Alt. Az. Time Alt. Az. Time Alt. Az.
30 Nov - 05:05:53 10° SSW 05:11:29 22° SSE 05:17:26 10° ESE visible
30 Nov - 06:53:03 10° SW 06:59:44 30° S 07:06:33 10° ESE visible
30 Nov - 08:41:44 10° WSW 08:48:04 25° SSW 08:54:13 10° SE daylight
30 Nov - 10:32:56 10° SW 10:35:59 12° SSW 10:38:56 10° S daylight
01 Dec - 03:11:06 10° SSE 03:12:09 10° SSE 03:13:14 10° SE visible
01 Dec - 04:54:16 10° SSW 04:59:51 23° SSE 05:05:54 10° ESE visible
01 Dec - 06:41:32 10° SW 06:48:06 30° S 06:54:56 10° SE visible
01 Dec - 08:30:16 10° WSW 08:36:26 24° SSW 08:42:30 10° SSE daylight
01 Dec - 10:22:10 10° SW 10:24:20 11° SSW 10:26:28 10° SSW daylight
02 Dec - 02:58:36 10° SSE 03:00:34 11° SSE 03:02:36 10° SE night (unlit)
02 Dec - 04:42:43 10° SW 04:48:15 24° SSE 04:54:20 10° ESE visible
02 Dec - 06:30:03 10° WSW 06:36:29 29° S 06:43:17 10° SE visible
02 Dec - 08:18:52 10° WSW 08:24:48 22° SSW 08:30:43 10° SSE visible
03 Dec - 02:46:35 10° S 02:48:58 12° SSE 02:51:30 10° SE night (unlit)
03 Dec - 04:31:14 10° SW 04:36:40 24° SSE 04:42:43 10° ESE visible
03 Dec - 06:18:38 10° WSW 06:24:52 28° S 06:31:35 10° SE visible
03 Dec - 08:07:32 10° WSW 08:13:09 21° SSW 08:18:50 10° SSE visible
04 Dec - 02:34:46 10° S 02:37:24 13° SSE 02:40:14 10° SE night (unlit)
04 Dec - 04:19:48 10° SW 04:25:05 25° SSE 04:31:03 10° ESE visible
04 Dec - 06:07:16 10° WSW 06:13:16 27° S 06:19:49 10° SE visible
04 Dec - 07:56:18 10° WSW 08:01:30 19° SSW 08:06:53 10° SSE visible
05 Dec - 02:23:05 10° S 02:25:52 13° SSE 02:28:52 10° SE night (unlit)
05 Dec - 04:08:25 10° SW 04:13:32 24° S 04:19:22 10° ESE visible
05 Dec - 05:55:56 10° WSW 06:01:41 26° S 06:08:01 10° SE visible
05 Dec - 07:45:08 10° WSW 07:49:53 17° SSW 07:54:48 10° SSE visible
06 Dec - 02:11:31 10° S 02:14:20 14° SSE 02:17:25 10° SE night (unlit)
06 Dec - 03:57:05 10° SW 04:02:00 24° S 04:07:39 10° ESE visible
06 Dec - 05:44:40 10° WSW 05:50:07 24° S 05:56:10 10° SE visible
06 Dec - 07:34:07 10° SW 07:38:16 15° SSW 07:42:33 10° S visible
07 Dec - 02:00:01 10° S 02:02:50 14° SSE 02:05:56 10° SE night (unlit)
07 Dec - 03:45:47 10° SW 03:50:29 23° S 03:55:55 10° SE visible
07 Dec - 05:33:27 10° WSW 05:38:33 23° S 05:44:15 10° SE visible
07 Dec - 07:23:20 10° SW 07:26:39 13° SSW 07:30:06 10° S visible
08 Dec - 01:48:36 10° SSW 01:51:22 14° SSE 01:54:24 10° SE night (unlit)
08 Dec - 03:34:33 10° SW 03:39:00 23° S 03:44:09 10° SE visible
08 Dec - 05:22:19 10° SW 05:27:01 21° S 05:32:16 10° SE visible
08 Dec - 07:13:00 10° SW 07:15:03 11° SSW 07:17:10 10° S visible
09 Dec - 01:37:14 10° SSW 01:39:54 14° SSE 01:42:51 10° SE night (unlit)
09 Dec - 03:23:21 10° SW 03:27:31 21° S 03:32:21 10° SE night (unlit)
09 Dec - 05:11:16 10° SW 05:15:29 18° SSW 05:20:12 10° SSE visible
